HODOYOSHI-3

Last updated on Sun Sep 20 2026 00:02:44 GMT+0000 (Coordinated Universal Time)

1 40015U 14033F 26262.21958903 .00000716 00000+0 88114-4 0 9995 2 40015 97.6534 61.5518 0033774 46.6806 313.7216 14.85563803661588
UTC large
Height (km)
Speed (km/s)
/
Latitude / Longitude
Inclination (degrees)
Orbital Period (minutes)
Azimuth
Elevation
Range (km)
Doppler Factor

Next 0 passes for location: London (51.5072 / 0.1276)

No passes found over London.
HODOYOSHI-3